Weather History for Northeast Philadelphia, PA

Change the Weather History Date:

Thursday, February 20, 2014

  Actual Average Record
Temperature  
Mean Temperature 42 °F -  
Max Temperature 53 °F 42 °F 62 °F (2002)
Min Temperature 30 °F 26 °F 23 °F (2005)
Degree Days  
Heating Degree Days 24    
Moisture  
Dew Point 26 °F    
Average Humidity 55    
Maximum Humidity 82    
Minimum Humidity 32    
Precipitation  
Precipitation 0.00 in - - ()
Sea Level Pressure  
Sea Level Pressure 30.17 in    
Wind  
Wind Speed 6 mph (South)    
Max Wind Speed 10 mph    
Max Gust Speed -    
Visibility 10 miles    
Events      
Averages and records for this station are not official NWS values.
T = Trace of Precipitation, MM = Missing Value Source: NWS Daily Summary

Daily Weather History Graph

Daily Weather History Graph

Search for Another Location

Airport:

Trip Planner

Search our weather history database for the weather conditions in past years. The results will help you decide how hot, cold, wet, or windy it might be!

Date:

Astronomy

Feb. 20, 2014 Rise Set
Actual Time 6:46 AM EST 5:41 PM EST
Civil Twilight 6:18 AM EST 6:09 PM EST
Nautical Twilight 5:47 AM EST 6:40 PM EST
Astronomical Twilight 5:15 AM EST 7:12 PM EST
Moon 11:33 PM EST (2/20) 9:27 AM EST (2/20)
Length of Visible Light 11h 50m
Length of Day
10h 55m
Waning Gibbous, 71% of the Moon is Illuminated
Feb 20
Waning Gibbous
Feb 22
Last Quarter
Mar 1
New
Mar 8
First Quarter
Mar 16
Full

Hourly Weather History & Observations

Time (EST) Temp. Windchill Dew Point Humidity Pressure Visibility Wind Dir Wind Speed Gust Speed Precip Events Conditions
12:54 AM 41.0 °F 34.7 °F 28.9 °F 62% 30.13 in 10.0 mi West 10.4 mph - N/A   Clear
1:54 AM 41.0 °F 36.4 °F 27.0 °F 57% 30.16 in 10.0 mi West 6.9 mph - N/A   Clear
2:54 AM 37.9 °F 34.4 °F 27.0 °F 65% 30.18 in 10.0 mi West 4.6 mph - N/A   Clear
3:54 AM 35.1 °F 31.0 °F 26.1 °F 70% 30.19 in 10.0 mi WSW 4.6 mph - N/A   Clear
4:54 AM 33.1 °F 28.7 °F 25.0 °F 72% 30.22 in 10.0 mi West 4.6 mph - N/A   Clear
5:54 AM 30.0 °F 25.2 °F 25.0 °F 82% 30.24 in 10.0 mi WNW 4.6 mph - N/A   Clear
6:54 AM 30.0 °F - 24.1 °F 79% 30.22 in 10.0 mi Calm Calm - N/A   Clear
7:54 AM 34.0 °F 29.8 °F 27.0 °F 75% 30.27 in 10.0 mi West 4.6 mph - N/A   Clear
8:54 AM 41.0 °F 36.4 °F 28.0 °F 60% 30.29 in 10.0 mi West 6.9 mph - N/A   Clear
9:54 AM 45.0 °F - 28.0 °F 52% 30.28 in 10.0 mi Calm Calm - N/A   Clear
10:54 AM 48.0 °F - 26.1 °F 42% 30.27 in 10.0 mi Calm Calm - N/A   Clear
11:54 AM 46.9 °F - 27.0 °F 46% 30.25 in 10.0 mi SE 8.1 mph - N/A   Clear
12:54 PM 48.9 °F - 25.0 °F 39% 30.22 in 10.0 mi SSE 4.6 mph - N/A   Clear
1:54 PM 51.1 °F - 24.1 °F 35% 30.19 in 10.0 mi Calm Calm - N/A   Scattered Clouds
2:54 PM 53.1 °F - 24.1 °F 32% 30.18 in 10.0 mi Variable 3.5 mph - N/A   Mostly Cloudy
3:54 PM 52.0 °F - 25.0 °F 35% 30.15 in 10.0 mi SSE 4.6 mph - N/A   Overcast
4:54 PM 51.1 °F - 21.9 °F 32% 30.13 in 10.0 mi SSE 5.8 mph - N/A   Overcast
5:54 PM 46.9 °F - 23.0 °F 39% 30.12 in 10.0 mi SE 8.1 mph - N/A   Overcast
6:54 PM 44.1 °F 39.5 °F 27.0 °F 51% 30.11 in 10.0 mi SE 8.1 mph - N/A   Overcast
7:18 PM 45.0 °F 42.6 °F 27.0 °F 49% 30.12 in 10.0 mi SE 4.6 mph - N/A   Overcast
7:54 PM 44.1 °F 40.8 °F 28.0 °F 53% 30.11 in 10.0 mi SSE 5.8 mph - N/A   Overcast
8:54 PM 43.0 °F 40.3 °F 28.9 °F 58% 30.10 in 10.0 mi East 4.6 mph - N/A   Overcast
9:54 PM 41.0 °F 36.4 °F 30.0 °F 65% 30.06 in 10.0 mi East 6.9 mph - N/A   Overcast
10:54 PM 42.1 °F 38.4 °F 28.9 °F 60% 30.05 in 10.0 mi ENE 5.8 mph - N/A   Overcast
11:54 PM 41.0 °F 36.4 °F 30.0 °F 65% 30.02 in 10.0 mi ENE 6.9 mph - N/A   Overcast